星链-30325 (STARLINK-30325 )

导读

STARLINK-30325是美国太空探索技术公司星链星座的成员,于2023年8月27日发射入轨,归属星链低轨互联网星座组网。星链项目旨在构建全球卫星互联网络,为全球范围提供高速低延迟的宽带互联网服务,该卫星承担了星座组网中地面通信信号覆盖与数据转发的任务,是星链大规模星座部署进程中的一环。

Basic Information
目录编号:
57717
目录名称:
STARLINK-30325
国际标识:
2023-129V
轨道中心:
EARTH
卫星名称:
星链-30325
卫星全名:
星链-30325 (STARLINK-30325 )
卫星状态:
在轨 (已飞行1104 天)
发射日期:
2023-08-27 UTC
国别 :
美国 (US)
星等 :
--
Orbit Information
数据来源 国际轨道数据 AOE轨道数据
星历时间 2026-09-04T05:15:31+0800
9小时前
查看轨道信息
2026-09-03T23:00:00+0800
15小时前
查看轨道信息
半长轴 6861.194km 6861.194km
偏心率 0.0001205 0.0000308
轨道倾角 43.003° 43.002°
近地点辐角 265.132° 216.353°
升交点赤经 191.690° 193.163°
平近点角 94.939° 147.990°
近地点 482.23km 482.845km
远地点 483.884km 483.269km
周期 94.267分钟 94.267分钟
每日圈数 15.275775 15.275774
Detailed Information
固有亮度:
5
最大亮度:
0.3
卫星平台:
Starlink v2.0 mini
覆盖范围:
全球
运营商:
太空探索技术公司
运营商所在国:
美国
制造商(研发单位):
太空探索技术公司
制造商所在国:
美国
使用方式:
暂无
Satellite Introduction
星链(Starlink)计划是由太空探索技术公司(SpaceX)提出的一个巨型低轨卫星互联网星座项目,计划在2019年至2024年间在太空搭建由约1.2万颗卫星组成的“星链”网络,其中1584颗将部署在地球上空550千米处的近地轨道,并从2020年开始工作。该卫星仍在工作。
2D Orbit Map
3D Orbit Map
Orbit Altitude Analysis Chart
Orbit Inclination Analysis Chart
Orbit Comprehensive Analysis Chart
View Comprehensive Chart
Conjunction Data List
Event ID Objects TCA Miss Dist (km) Collision Risk Probability Collision Risk Index (CRI) Action
CDM_260905-040702-893205-771722
H-2A R/B (28932)
2026-09-05T
04:07:33+0000
0.432 km
远距离
2.656152E-4 高风险 0.83
CDM_260905-121105-771706-391421
2026-09-05T
12:11:38+0000
0.735 km
远距离
3.565947E-5 中风险 0.66
CDM_260905-103705-771706-391421
2026-09-05T
10:37:28+0000
1.098 km
极远距离
9.236292E-6 低风险 0.54
CDM_260905-081405-771706-215921
2026-09-05T
08:14:42+0000
1.145 km
极远距离
6.683472E-6 低风险 0.52
CDM_260905-024505-771706-215921
2026-09-05T
02:45:10+0000
1.427 km
极远距离
3.221207E-6 低风险 0.45
CDM_260905-041905-771706-215921
2026-09-05T
04:19:19+0000
1.636 km
极远距离
2.127024E-6 低风险 0.42
CDM_260905-134505-771706-391421
2026-09-05T
13:45:47+0000
2.593 km
极远距离
8.883119E-7 极低风险 0.34
CDM_260905-064005-771706-215921
2026-09-05T
06:40:33+0000
2.484 km
极远距离
8.217282E-7 极低风险 0.33
CDM_260905-090305-771706-391421
2026-09-05T
09:03:19+0000
2.880 km
极远距离
7.708789E-7 极低风险 0.33